| time (UTC) | temp F | wind direction | speed knots | gust knots | rain 1hr in | rain 24hr in | rain mn in | humidity % | barometer mb |
| 20260510191507 | 75 | 209 | 5.2 | 0.0 | 0.00 | 0.00 | 0.00 | 27 | 1013.7 |
| 20260510190047 | 76 | 203 | 2.6 | 0.0 | 0.00 | 0.00 | 0.00 | 29 | 1014.0 |
| 20260510184547 | 75 | 168 | 2.6 | 0.0 | 0.00 | 0.00 | 0.00 | 28 | 1014.2 |
| 20260510183035 | 75 | 196 | 1.7 | 0.0 | 0.00 | 0.00 | 0.00 | 30 | 1014.3 |
| 20260510181524 | 73 | 173 | 1.7 | 0.0 | 0.00 | 0.00 | 0.00 | 29 | 1014.2 |
| 20260510180005 | 73 | 150 | 1.7 | 0.0 | 0.00 | 0.00 | 0.00 | 31 | 1014.4 |
| 20260510174501 | 72 | 174 | 0.9 | 0.0 | 0.00 | 0.00 | 0.00 | 34 | 1014.7 |
| 20260510173041 | 71 | 183 | 0.9 | 0.0 | 0.00 | 0.00 | 0.00 | 34 | 1015.0 |
| 20260510171539 | 69 | 184 | 1.7 | 0.0 | 0.00 | 0.00 | 0.00 | 33 | 1015.1 |
| 20260510170018 | 69 | 184 | 0.9 | 0.0 | 0.00 | 0.00 | 0.00 | 36 | 1015.3 |
| 20260510164532 | 69 | 184 | 0.9 | 0.0 | 0.00 | 0.00 | 0.00 | 38 | 1015.4 |
| 20260510163056 | 67 | 184 | 1.7 | 0.0 | 0.00 | 0.00 | 0.00 | 40 | 1015.4 |
| 20260510161554 | 66 | 187 | 0.9 | 0.0 | 0.00 | 0.00 | 0.00 | 41 | 1015.4 |
| 20260510160038 | 66 | 191 | 0.9 | 0.0 | 0.00 | 0.00 | 0.00 | 42 | 1015.8 |
| 20260510154530 | 64 | 287 | 0.0 | 0.0 | 0.00 | 0.00 | 0.00 | 45 | 1015.8 |
| 20260510153013 | 63 | 287 | 0.0 | 0.0 | 0.00 | 0.00 | 0.00 | 47 | 1015.9 |
| 20260510151505 | 60 | 288 | 0.0 | 0.0 | 0.00 | 0.00 | 0.00 | 52 | 1016.0 |
| 20260510150043 | 58 | 288 | 0.0 | 0.0 | 0.00 | 0.00 | 0.00 | 56 | 1015.9 |
| 20260510144539 | 52 | 288 | 0.0 | 0.0 | 0.00 | 0.00 | 0.00 | 75 | 1016.0 |
| 20260510143020 | 49 | 288 | 0.0 | 0.0 | 0.00 | 0.00 | 0.00 | 80 | 1016.2 |
| 20260510141520 | 47 | 288 | 0.0 | 0.0 | 0.00 | 0.00 | 0.00 | 83 | 1016.3 |
| 20260510140101 | 45 | 288 | 0.0 | 0.0 | 0.00 | 0.00 | 0.00 | 85 | 1016.3 |
| 20260510134601 | 44 | 288 | 0.0 | 0.0 | 0.00 | 0.00 | 0.00 | 86 | 1016.5 |
| 20260510133041 | 42 | 288 | 0.0 | 0.0 | 0.00 | 0.00 | 0.00 | 88 | 1016.5 |
| 20260510131541 | 40 | 288 | 0.0 | 0.0 | 0.00 | 0.00 | 0.00 | 87 | 1016.7 |
| 20260510130028 | 39 | 288 | 0.0 | 0.0 | 0.00 | 0.00 | 0.00 | 87 | 1016.8 |
| 20260510124522 | 38 | 288 | 0.0 | 0.0 | 0.00 | 0.00 | 0.00 | 86 | 1016.8 |
| 20260510123007 | 38 | 287 | 0.0 | 0.0 | 0.00 | 0.00 | 0.00 | 87 | 1016.8 |
| 20260510121501 | 38 | 288 | 0.0 | 0.0 | 0.00 | 0.00 | 0.00 | 86 | 1016.9 |
| 20260510120043 | 38 | 287 | 0.0 | 0.0 | 0.00 | 0.00 | 0.00 | 86 | 1017.1 |
| 20260510114543 | 38 | 288 | 0.0 | 0.0 | 0.00 | 0.00 | 0.00 | 85 | 1016.9 |
| 20260510113029 | 38 | 288 | 0.0 | 0.0 | 0.00 | 0.00 | 0.00 | 84 | 1017.1 |
| 20260510111530 | 39 | 288 | 0.0 | 0.0 | 0.00 | 0.00 | 0.00 | 84 | 1017.1 |
| 20260510110101 | 39 | 288 | 0.0 | 0.0 | 0.00 | 0.00 | 0.00 | 84 | 1017.3 |
| 20260510104610 | 39 | 288 | 0.0 | 0.0 | 0.00 | 0.00 | 0.00 | 84 | 1017.4 |
| 20260510103042 | 40 | 288 | 0.0 | 0.0 | 0.00 | 0.00 | 0.00 | 83 | 1017.4 |
| 20260510101540 | 40 | 287 | 0.0 | 0.0 | 0.00 | 0.00 | 0.00 | 84 | 1017.6 |
| 20260510100021 | 41 | 287 | 0.0 | 0.0 | 0.00 | 0.00 | 0.00 | 83 | 1017.5 |
| 20260510094522 | 41 | 288 | 0.0 | 0.0 | 0.00 | 0.00 | 0.00 | 84 | 1017.5 |
| 20260510093004 | 41 | 288 | 0.0 | 0.0 | 0.00 | 0.00 | 0.00 | 84 | 1017.6 |
| 20260510091502 | 41 | 288 | 0.0 | 0.0 | 0.00 | 0.00 | 0.00 | 84 | 1017.7 |
| 20260510090127 | 41 | 288 | 0.0 | 0.0 | 0.00 | 0.00 | 0.00 | 84 | 1017.9 |
| 20260510084605 | 41 | 288 | 0.0 | 0.0 | 0.00 | 0.00 | 0.00 | 84 | 1017.9 |
| 20260510083114 | 41 | 288 | 0.0 | 0.0 | 0.00 | 0.00 | 0.00 | 83 | 1017.9 |
| 20260510081601 | 42 | 288 | 0.0 | 0.0 | 0.00 | 0.00 | 0.00 | 84 | 1017.9 |
| 20260510074556 | 42 | 287 | 0.0 | 0.0 | 0.00 | 0.00 | 0.00 | 82 | 1018.1 |
| 20260510073055 | 42 | 287 | 0.0 | 0.0 | 0.00 | 0.00 | 0.00 | 82 | 1018.1 |
| 20260510071552 | 43 | 288 | 0.0 | 0.0 | 0.00 | 0.00 | 0.00 | 81 | 1018.2 |
| 20260510070105 | 43 | 288 | 0.0 | 0.0 | 0.00 | 0.00 | 0.00 | 80 | 1018.2 |
| 20260510064607 | 44 | 288 | 0.0 | 0.0 | 0.00 | 0.00 | 0.00 | 79 | 1018.3 |
| 20260510063051 | 44 | 288 | 0.0 | 0.0 | 0.00 | 0.00 | 0.00 | 79 | 1018.2 |
| 20260510061551 | 45 | 288 | 0.0 | 0.0 | 0.00 | 0.00 | 0.00 | 78 | 1018.2 |
| 20260510060032 | 46 | 288 | 0.0 | 0.0 | 0.00 | 0.00 | 0.00 | 77 | 1018.3 |
| 20260510054522 | 46 | 288 | 0.0 | 0.0 | 0.00 | 0.00 | 0.00 | 76 | 1018.3 |
| 20260510053005 | 47 | 288 | 0.0 | 0.0 | 0.00 | 0.00 | 0.00 | 75 | 1018.4 |
| 20260510051609 | 48 | 288 | 0.0 | 0.0 | 0.00 | 0.00 | 0.00 | 74 | 1018.5 |
| 20260510050039 | 49 | 288 | 0.0 | 0.0 | 0.00 | 0.00 | 0.00 | 73 | 1018.5 |
| 20260510044538 | 50 | 288 | 0.0 | 0.0 | 0.00 | 0.00 | 0.00 | 71 | 1018.6 |
| 20260510043016 | 51 | 288 | 0.0 | 0.0 | 0.00 | 0.00 | 0.00 | 70 | 1018.5 |
| 20260510041514 | 52 | 288 | 0.0 | 0.0 | 0.00 | 0.00 | 0.00 | 68 | 1018.5 |
| 20260510040051 | 53 | 288 | 0.0 | 0.0 | 0.00 | 0.00 | 0.00 | 65 | 1018.4 |
| 20260510034558 | 55 | 288 | 0.0 | 0.0 | 0.00 | 0.00 | 0.00 | 63 | 1018.2 |
| 20260510033031 | 57 | 288 | 0.0 | 0.0 | 0.00 | 0.00 | 0.00 | 60 | 1018.2 |
| 20260510031536 | 58 | 288 | 0.0 | 0.0 | 0.00 | 0.00 | 0.00 | 57 | 1018.2 |
| 20260510030014 | 60 | 288 | 0.0 | 0.0 | 0.00 | 0.00 | 0.00 | 52 | 1018.1 |
| 20260510024514 | 63 | 288 | 0.0 | 0.0 | 0.00 | 0.00 | 0.00 | 49 | 1018.1 |
| 20260510023056 | 64 | 288 | 0.0 | 0.0 | 0.00 | 0.00 | 0.00 | 42 | 1018.1 |
| 20260510021555 | 64 | 288 | 0.0 | 0.0 | 0.00 | 0.00 | 0.00 | 39 | 1018.0 |
| 20260510020037 | 65 | 288 | 0.0 | 0.0 | 0.00 | 0.00 | 0.00 | 37 | 1018.2 |
| 20260510014539 | 65 | 288 | 0.0 | 0.0 | 0.00 | 0.00 | 0.00 | 33 | 1018.2 |
| 20260510013022 | 66 | 288 | 1.7 | 0.0 | 0.00 | 0.00 | 0.00 | 31 | 1018.2 |
| 20260510011522 | 66 | 288 | 2.6 | 0.0 | 0.00 | 0.00 | 0.00 | 32 | 1018.3 |
| 20260510010001 | 66 | 287 | 3.5 | 0.0 | 0.00 | 0.00 | 0.00 | 35 | 1018.4 |
| 20260510004500 | 68 | 283 | 2.6 | 0.0 | 0.00 | 0.00 | 0.00 | 31 | 1018.4 |
| 20260510003053 | 68 | 283 | 0.9 | 0.0 | 0.00 | 0.00 | 0.00 | 31 | 1018.4 |
| 20260510001542 | 67 | 302 | 3.5 | 0.0 | 0.00 | 0.00 | 0.00 | 34 | 1018.4 |
| 20260510000026 | 68 | 278 | 2.6 | 0.0 | 0.00 | 0.00 | 0.00 | 32 | 1018.3 |
| 20260509234535 | 68 | 269 | 3.5 | 0.0 | 0.00 | 0.00 | 0.00 | 33 | 1018.3 |
| 20260509233009 | 67 | 303 | 2.6 | 0.0 | 0.00 | 0.00 | 0.00 | 34 | 1018.4 |
| 20260509231505 | 67 | 290 | 3.5 | 0.0 | 0.00 | 0.00 | 0.00 | 32 | 1018.4 |
| 20260509230054 | 67 | 289 | 2.6 | 0.0 | 0.00 | 0.00 | 0.00 | 33 | 1018.5 |
| 20260509224546 | 67 | 285 | 3.5 | 0.0 | 0.00 | 0.00 | 0.00 | 33 | 1018.5 |
| 20260509223032 | 67 | 280 | 0.9 | 0.0 | 0.00 | 0.00 | 0.00 | 35 | 1018.6 |
| 20260509221528 | 67 | 259 | 0.9 | 0.0 | 0.00 | 0.00 | 0.00 | 34 | 1018.8 |
| 20260509220016 | 66 | 217 | 3.5 | 0.0 | 0.00 | 0.00 | 0.00 | 34 | 1019.1 |
| 20260509214509 | 66 | 294 | 1.7 | 0.0 | 0.00 | 0.00 | 0.00 | 38 | 1019.1 |
| 20260509213108 | 65 | 214 | 2.6 | 0.0 | 0.00 | 0.00 | 0.00 | 33 | 1019.4 |
| 20260509211558 | 65 | 236 | 1.7 | 0.0 | 0.00 | 0.00 | 0.00 | 36 | 1019.5 |
| 20260509210104 | 65 | 254 | 2.6 | 0.0 | 0.00 | 0.00 | 0.00 | 37 | 1019.6 |
| 20260509204537 | 65 | 280 | 3.5 | 0.0 | 0.00 | 0.00 | 0.00 | 35 | 1019.6 |
| 20260509203041 | 64 | 279 | 3.5 | 0.0 | 0.00 | 0.00 | 0.00 | 35 | 1019.8 |
| 20260509201533 | 64 | 211 | 3.5 | 0.0 | 0.00 | 0.00 | 0.00 | 36 | 1019.9 |
| 20260509200034 | 64 | 290 | 3.5 | 0.0 | 0.00 | 0.00 | 0.00 | 39 | 1020.1 |
| 20260509194531 | 64 | 201 | 3.5 | 0.0 | 0.00 | 0.00 | 0.00 | 42 | 1020.2 |
| 20260509193030 | 63 | 213 | 2.6 | 0.0 | 0.00 | 0.00 | 0.00 | 40 | 1020.4 |